ASTRA 1L

Last updated on Nov. 13, 2019, 4:20 a.m. UTC

1 31306U 07016A   19316.30604981  .00000134  00000-0  00000+0 0  9995
2 31306   0.0649 298.1153 0005022 325.9047 276.5215  1.00272912 45889
UTC
Height (km)
Latitude
Longitude
Inclination
Orbital Period
UTC large
Height (km)
Speed (km/s)
/
Latitude / Longitude
Inclination (degrees)
Orbital Period (minutes)
Azimuth
Elevation
Range (km)
Doppler Factor
iOS Compass Heading
iOS Angle

Next 30 passes for location: Hong Kong

Rise time Rise Azimuth (degrees) Set time Set Azimuth (degrees) Duration Max altitude (degrees)

No matching passes for this satellites